Regional Weather Roundup
Issued by NWS

Home | Current Version | Previous Version | Graphics & Text | Print | Product List | Glossary On
Versions: 1 2 3 4 5 6 7 8 9 10 11 12 13 14 15 16 17 18 19 20 21 22 23 24 25 26 27 28 29 30 31 32 33 34 35 36 37 38 39 40 41 42 43 44 45 46 47 48 49 50
000
ASUS43 KLMK 261510
RWRKY
KENTUCKY REGIONAL WEATHER ROUNDUP
NATIONAL WEATHER SERVICE LOUISVILLE KY
1100 AM EDT SUN APR 26 2015

NOTE "FAIR" INDICATES FEW OR NO CLOUDS BELOW 12,000 FEET
WITH NO SIGNIFICANT WEATHER AND/OR OBSTRUCTIONS TO VISIBILITY.

KYZ001>023-026-027-061>063-070>075-261600-
WESTERN AND SOUTH CENTRAL KENTUCKY

CITY           SKY/WX    TMP DP  RH WIND       PRES   REMARKS
PADUCAH        CLOUDY    51  44  77 NE10      29.87R
HENDERSON      CLOUDY    52  37  58 NE12      29.86R
OWENSBORO      MOSUNNY   53  41  64 N9        29.85R
HOPKINSVILLE   CLOUDY    49  47  94 N13       29.82R
BOWLING GREEN  CLOUDY    49  44  83 VRB7      29.83R
GLASGOW        CLOUDY    48  44  87 N7        29.81R
$$

KYZ024-025-028>034-038-045-046-053-261600-
NORTH CENTRAL KENTUCKY

CITY           SKY/WX    TMP DP  RH WIND       PRES   REMARKS
LOUISVILLE/SDF MOSUNNY   53  37  54 N10       29.84R
LOUISVILLE/LOU SUNNY     52  37  56 N7        29.84R
FORT KNOX      CLOUDY    49  36  61 N9        29.82R
$$

KYZ035>037-039>044-047>052-055>060-089>105-261600-
NORTHEAST KENTUCKY

CITY           SKY/WX    TMP DP  RH WIND       PRES   REMARKS
LEXINGTON      CLOUDY    47  38  71 N8        29.81R
COVINGTON      MOSUNNY   50  36  58 N12G17    29.84R
FRANKFORT      CLOUDY    48  37  65 N7        29.81R
$$

KYZ054-064>069-076>088-106>120-261600-
SOUTHEAST KENTUCKY

CITY           SKY/WX    TMP DP  RH WIND       PRES   REMARKS
JACKSON        PTSUNNY   50  42  74 CALM      29.77R
LONDON         CLOUDY    47  42  83 N10       29.77R HAZE
SOMERSET       CLOUDY    45  45 100 NE8       29.80R
MIDDLESBORO    CLOUDY    52  49  89 N5        29.74R
MONTICELLO     CLOUDY    48  47  97 N8        29.81R
$$



USA.gov is the U.S. government's official web portal to all federal, state and local government web resources and services.